When you browse on this site, cookies collect data to enhance your experience and personalize the content and advertising you see.
Visit our Privacy Policy to learn more. By continuing to use the site, you agree to this use of cookies and data.
  • In Hungary
  • List of Countries
  • For 7 days
  • Water Temperature
  • Satellite Maps
  • Weather Map
  • News
  • Weather Widgets
  • user-avatar
    Login

    Hourly Weather Moron de la Frontera

    Today, 18 November, Sunday

    Time Temperature Precipitation Wind Pressure Humidity
    00:00 +16°C° 0 mm 3 mps 738 mmHg 77%
    01:00 +16°C° 0.2 mm 3 mps 738 mmHg 78%
    02:00 +16°C° 0.2 mm 3 mps 737 mmHg 79%
    03:00 +15°C° 0.2 mm 2 mps 737 mmHg 80%
    04:00 +15°C° 0.4 mm 2 mps 736 mmHg 81%
    05:00 +14°C° 0.4 mm 3 mps 736 mmHg 81%
    06:00 +14°C° 0 mm 4 mps 735 mmHg 79%
    07:00 +14°C° 1.4 mm 4 mps 735 mmHg 80%
    08:00 +14°C° 1.4 mm 3 mps 735 mmHg 81%
    09:00 +14°C° 1.4 mm 3 mps 735 mmHg 82%
    10:00 +16°C° 1.8 mm 3 mps 735 mmHg 80%
    11:00 +16°C° 1.8 mm 3 mps 735 mmHg 79%
    12:00 +16°C° 1.8 mm 3 mps 735 mmHg 78%
    13:00 +17°C° 1.4 mm 4 mps 734 mmHg 76%
    14:00 +17°C° 1.4 mm 4 mps 734 mmHg 75%
    15:00 +17°C° 1.4 mm 4 mps 734 mmHg 74%
    16:00 +16°C° 0.7 mm 3 mps 734 mmHg 77%
    17:00 +14°C° 0.7 mm 3 mps 734 mmHg 80%
    18:00 +15°C° 0.7 mm 2 mps 734 mmHg 83%
    19:00 +14°C° 0.3 mm 2 mps 734 mmHg 84%
    20:00 +14°C° 0.3 mm 2 mps 734 mmHg 84%
    21:00 +14°C° 0.3 mm 2 mps 734 mmHg 85%
    22:00 +14°C° 0.2 mm 2 mps 734 mmHg 86%
    23:00 +13°C° 0.2 mm 2 mps 734 mmHg 86%

    Tomorrow, 19 November, Monday

    Time Temperature Precipitation Wind Pressure Humidity
    00:00 +13°C° 0.2 mm 2 mps 734 mmHg 87%
    01:00 +13°C° 0.3 mm 2 mps 734 mmHg 87%
    02:00 +13°C° 0.3 mm 2 mps 734 mmHg 88%
    03:00 +13°C° 0.3 mm 2 mps 734 mmHg 89%
    04:00 +13°C° 0.1 mm 1 mps 734 mmHg 90%
    05:00 +12°C° 0.1 mm 1 mps 735 mmHg 91%
    06:00 +12°C° 0.1 mm 1 mps 735 mmHg 92%
    07:00 +13°C° 0.1 mm 1 mps 735 mmHg 89%
    08:00 +13°C° 0.1 mm 2 mps 736 mmHg 87%
    09:00 +14°C° 0.1 mm 2 mps 736 mmHg 85%
    10:00 +15°C° 0.1 mm 2 mps 736 mmHg 81%
    11:00 +14°C° 0.1 mm 3 mps 736 mmHg 77%
    12:00 +16°C° 0.1 mm 3 mps 736 mmHg 73%
    13:00 +15°C° 0.3 mm 4 mps 736 mmHg 71%
    14:00 +17°C° 0.3 mm 4 mps 736 mmHg 70%
    15:00 +17°C° 0.3 mm 4 mps 736 mmHg 69%
    16:00 +15°C° 0.3 mm 4 mps 736 mmHg 72%
    17:00 +14°C° 0.3 mm 3 mps 736 mmHg 75%
    18:00 +13°C° 0.3 mm 3 mps 736 mmHg 79%
    19:00 +13°C° 0 mm 3 mps 737 mmHg 80%
    20:00 +13°C° 0 mm 3 mps 737 mmHg 82%
    21:00 +13°C° 0 mm 2 mps 737 mmHg 84%
    22:00 +13°C° 0.1 mm 2 mps 737 mmHg 85%
    23:00 +13°C° 0.1 mm 2 mps 737 mmHg 87%

    Day after tomorrow, 20 November, Tuesday

    Time Temperature Precipitation Wind Pressure Humidity
    00:00 +13°C° 0.1 mm 2 mps 736 mmHg 88%
    01:00 +13°C° 0.8 mm 2 mps 736 mmHg 89%
    02:00 +13°C° 0.8 mm 2 mps 736 mmHg 90%
    03:00 +13°C° 0.8 mm 2 mps 736 mmHg 90%
    04:00 +13°C° 1.7 mm 2 mps 735 mmHg 91%
    05:00 +13°C° 1.7 mm 2 mps 735 mmHg 91%
    06:00 +13°C° 1.7 mm 2 mps 735 mmHg 91%
    07:00 +13°C° 0.3 mm 2 mps 735 mmHg 89%
    08:00 +14°C° 0.3 mm 1 mps 736 mmHg 87%
    09:00 +14°C° 0.3 mm 1 mps 737 mmHg 86%
    10:00 +15°C° 0.2 mm 2 mps 737 mmHg 82%
    11:00 +15°C° 0.2 mm 4 mps 737 mmHg 77%
    12:00 +15°C° 0.2 mm 5 mps 737 mmHg 73%
    13:00 +15°C° 0.2 mm 5 mps 737 mmHg 71%
    14:00 +16°C° 0.2 mm 6 mps 737 mmHg 68%
    15:00 +16°C° 0.2 mm 7 mps 737 mmHg 65%
    16:00 +15°C° 0.1 mm 6 mps 738 mmHg 69%
    17:00 +14°C° 0.1 mm 6 mps 738 mmHg 73%
    18:00 +13°C° 0.1 mm 5 mps 738 mmHg 77%
    19:00 +13°C° 0.1 mm 4 mps 739 mmHg 79%
    20:00 +13°C° 0.1 mm 4 mps 739 mmHg 81%
    21:00 +12°C° 0.1 mm 4 mps 740 mmHg 82%
    22:00 +12°C° 0.2 mm 4 mps 740 mmHg 84%
    23:00 +12°C° 0.2 mm 3 mps 740 mmHg 85%

    21 November, Wednesday

    Time Temperature Precipitation Wind Pressure Humidity
    00:00 +12°C° 0.2 mm 3 mps 740 mmHg 87%
    01:00 +12°C° 0.2 mm 3 mps 740 mmHg 87%
    02:00 +12°C° 0.2 mm 3 mps 740 mmHg 88%
    03:00 +12°C° 0.2 mm 3 mps 740 mmHg 89%
    04:00 +12°C° 0.2 mm 3 mps 740 mmHg 89%
    05:00 +11°C° 0.2 mm 3 mps 740 mmHg 89%
    06:00 +11°C° 0.2 mm 3 mps 740 mmHg 89%
    07:00 +12°C° 0.1 mm 3 mps 741 mmHg 86%
    08:00 +13°C° 0.1 mm 3 mps 741 mmHg 83%
    09:00 +13°C° 0.1 mm 3 mps 742 mmHg 79%
    10:00 +14°C° 0.1 mm 4 mps 742 mmHg 74%
    11:00 +15°C° 0.1 mm 4 mps 742 mmHg 69%
    12:00 +17°C° 0.1 mm 4 mps 742 mmHg 64%
    13:00 +17°C° 0.1 mm 4 mps 742 mmHg 63%
    14:00 +17°C° 0.1 mm 4 mps 742 mmHg 61%
    15:00 +17°C° 0.1 mm 4 mps 742 mmHg 60%
    16:00 +15°C° 0 mm 4 mps 742 mmHg 65%
    17:00 +14°C° 0 mm 3 mps 742 mmHg 71%
    18:00 +13°C° 0 mm 2 mps 743 mmHg 76%
    19:00 +13°C° 0 mm 2 mps 743 mmHg 78%
    20:00 +13°C° 0 mm 2 mps 744 mmHg 79%
    21:00 +12°C° 0 mm 2 mps 744 mmHg 81%
    22:00 +12°C° 0 mm 2 mps 744 mmHg 81%
    23:00 +12°C° 0 mm 1 mps 744 mmHg 82%

    22 November, Thursday

    Time Temperature Precipitation Wind Pressure Humidity
    00:00 +12°C° 0 mm 1 mps 744 mmHg 82%
    01:00 +12°C° 0.1 mm 1 mps 744 mmHg 82%
    02:00 +12°C° 0.1 mm 1 mps 744 mmHg 82%
    03:00 +11°C° 0.1 mm 1 mps 744 mmHg 82%
    04:00 +11°C° 0.1 mm 1 mps 744 mmHg 82%
    05:00 +11°C° 0.1 mm 1 mps 744 mmHg 83%
    06:00 +11°C° 0.1 mm 1 mps 744 mmHg 84%
    07:00 +12°C° 0.2 mm 1 mps 744 mmHg 81%
    08:00 +13°C° 0.2 mm 1 mps 744 mmHg 78%
    09:00 +13°C° 0.2 mm 1 mps 745 mmHg 75%
    10:00 +14°C° 0.2 mm 1 mps 745 mmHg 71%
    11:00 +15°C° 0.2 mm 2 mps 744 mmHg 67%
    12:00 +16°C° 0.2 mm 2 mps 744 mmHg 63%
    13:00 +17°C° 0.3 mm 2 mps 744 mmHg 64%
    14:00 +17°C° 0.3 mm 2 mps 744 mmHg 65%
    15:00 +17°C° 0.3 mm 3 mps 744 mmHg 66%
    16:00 +16°C° 0.3 mm 2 mps 744 mmHg 72%
    17:00 +15°C° 0.3 mm 2 mps 744 mmHg 77%
    18:00 +14°C° 0.3 mm 2 mps 744 mmHg 83%
    19:00 +14°C° 0.3 mm 2 mps 744 mmHg 83%
    20:00 +13°C° 0.3 mm 1 mps 745 mmHg 84%
    21:00 +13°C° 0.3 mm 1 mps 745 mmHg 85%
    22:00 +13°C° 0.5 mm 1 mps 745 mmHg 85%
    23:00 +13°C° 0.5 mm 1 mps 745 mmHg 86%

    23 November, Friday

    Time Temperature Precipitation Wind Pressure Humidity
    00:00 +13°C° 0.5 mm 1 mps 745 mmHg 86%
    01:00 +13°C° 0.3 mm 1 mps 745 mmHg 87%
    02:00 +13°C° 0.3 mm 1 mps 745 mmHg 88%
    03:00 +13°C° 0.3 mm 1 mps 745 mmHg 89%
    04:00 +13°C° 0.1 mm 1 mps 745 mmHg 89%
    05:00 +12°C° 0.1 mm 1 mps 745 mmHg 89%
    06:00 +12°C° 0.1 mm 1 mps 745 mmHg 89%
    07:00 +13°C° 0.1 mm 1 mps 746 mmHg 87%
    08:00 +13°C° 0.1 mm 1 mps 746 mmHg 84%
    09:00 +14°C° 0.1 mm 1 mps 747 mmHg 82%
    10:00 +15°C° 0 mm 1 mps 746 mmHg 76%
    11:00 +16°C° 0 mm 1 mps 746 mmHg 71%
    12:00 +18°C° 0 mm 1 mps 746 mmHg 66%
    13:00 +18°C° 0 mm 1 mps 746 mmHg 66%
    14:00 +18°C° 0 mm 1 mps 746 mmHg 66%
    15:00 +18°C° 0 mm 1 mps 745 mmHg 66%
    16:00 +16°C° 0.1 mm 1 mps 745 mmHg 71%
    17:00 +15°C° 0.1 mm 1 mps 746 mmHg 76%
    18:00 +15°C° 0.1 mm 1 mps 746 mmHg 80%
    19:00 +14°C° 0.1 mm 1 mps 746 mmHg 82%
    20:00 +14°C° 0.1 mm 1 mps 746 mmHg 83%
    21:00 +14°C° 0.1 mm 1 mps 747 mmHg 84%
    22:00 +14°C° 0 mm 1 mps 747 mmHg 85%
    23:00 +12°C° 0 mm 0 mps 747 mmHg 86%
    Show more